Regional Weather Roundup
Issued by NWS

Home | Current Version | Previous Version | Text Only | Print | Product List | Glossary On
Versions: 1 2 3 4 5 6 7 8 9 10 11 12 13 14 15 16 17 18 19 20 21 22 23 24 25 26 27 28 29 30 31 32 33 34 35 36 37 38 39 40 41 42 43 44 45 46 47 48 49 50
286
ASUS46 KSEW 262210
RWRWA

WASHINGTON REGIONAL WEATHER ROUNDUP
NATIONAL WEATHER SERVICE SEATTLE WA
300 PM PDT MON SEP 26 2016

NOTE:"FAIR" INDICATES FEW OR NO CLOUDS BELOW 12,000 FEET WITH NO
SIGNIFICANT WEATHER AND/OR OBSTRUCTIONS TO VISIBILITY.

WAZ505-507>509-262300-
SEATTLE, TACOMA, EVERETT, AND VICINITY

CITY           SKY/WX    TMP DP  RH WIND       PRES   REMARKS
EVERETT        SUNNY     70  55  59 W8        30.05F
BOEING FIELD   SUNNY     74  54  49 CALM      30.02F
RENTON         SUNNY     76  56  49 N5        30.01F
SEATAC AIRPORT MOSUNNY   74  54  49 CALM      30.04F
JBLM-MCCHORD   SUNNY     78  57  48 NW5       30.02F
PUYALLUP       FAIR      81  57  44 VRB3      30.03F
BREMERTON      SUNNY     79  57  47 W6        30.07S
JBLM-FT LEWIS  SUNNY     77  59  52 VRB3      30.02F
TACOMA NARROWS SUNNY     73  54  51 S5        30.03F
$$

WAZ001-503-506-510-514-515-262300-
NORTH INTERIOR

CITY           SKY/WX    TMP DP  RH WIND       PRES   REMARKS
BELLINGHAM     PTSUNNY   66  56  70 CALM      30.03F
FRIDAY HARBOR  PTSUNNY   68  54  60 E5        30.04F
EASTSOUND      PTSUNNY   59  55  88 N3        30.03F
PORT ANGELES   PTSUNNY   68  53  58 N3        30.05F
EDIZ HOOK      FAIR      58  52  79 E3        30.05F
PORT TOWNSEND  FAIR      70  55  60 NW8       30.04F
NAS WHIDBEY    MOSUNNY   66  52  60 W5        30.08F
ARLINGTON      SUNNY     75  55  50 NW10      30.04S
BURLINGTON     SUNNY     68  55  64 NW10      30.04F
$$

WAZ020-022-039-040-504-511-512-262300-
SOUTHWEST INTERIOR

CITY           SKY/WX    TMP DP  RH WIND       PRES   REMARKS
SHELTON        SUNNY     81  56  42 SW9       30.00F
OLYMPIA        SUNNY     78  56  46 CALM      30.02F
CHEHALIS       FAIR      82  61  47 N3        30.02F
KELSO          SUNNY     83  58  42 N3        30.00F
VANCOUVER      SUNNY     85  52  32 W6        29.99F
SCAPPOOSE, OR  SUNNY     85  54  34 VRB5      29.98F
PORTLAND, OR   SUNNY     85  50  29 VRB3      29.99F
$$

WAZ021-516-517-262300-
WASHINGTON COAST

CITY           SKY/WX    TMP DP  RH WIND       PRES   REMARKS
FORKS          MOSUNNY   67  58  72 NW10      30.08S
HOQUIAM        SUNNY     71  63  75 SW13      30.06F
ASTORIA, OR    SUNNY     71  58  63 NW17G28   30.06S
$$

WAZ019-023-024-040-518-519-262300-
CASCADE MOUNTAINS AND COLUMBIA GORGE

CITY           SKY/WX    TMP DP  RH WIND       PRES   REMARKS
STAMPEDE PASS  SUNNY     71  46  40 E3        30.18F
TROUTDALE, OR  SUNNY     85  55  35 VRB5      29.99F
THE DALLES, OR SUNNY     87  42  20 W5        29.99F
$$

WAZ026-027-041>044-520-521-262300-
EAST SLOPES

CITY           SKY/WX    TMP DP  RH WIND       PRES   REMARKS
OMAK           SUNNY     80  42  25 S10       30.07F
WENATCHEE      SUNNY     80  46  30 E7        30.06F
ELLENSBURG     SUNNY     85  47  26 E8        30.06F
YAKIMA         SUNNY     85  47  26 S6        30.04F
$$

WAZ028-034-035-262300-
COLUMBIA BASIN

CITY           SKY/WX    TMP DP  RH WIND       PRES   REMARKS
EPHRATA        SUNNY     82  46  28 VRB3      30.06F
MOSES LAKE     SUNNY     82  45  27 VRB3      30.06F
PASCO          SUNNY     82  48  30 NW7       30.04F
HERMISTON, OR  SUNNY     85  46  25 VRB5      30.02F
$$

WAZ036>038-262300-
NORTHEAST WASHINGTON

CITY           SKY/WX    TMP DP  RH WIND       PRES   REMARKS
SPOKANE GEIGER MOSUNNY   79  45  29 NE7       30.13F
SPOKANE FELTS  SUNNY     81  46  29 VRB3      30.12F
FAIRCHILD AFB  SUNNY     79  46  30 E5        30.13F
COEURDALENE,ID NOT AVBL
DEER PARK      SUNNY     78  42  27 VRB3      30.14F
$$

WAZ029>033-262300-
SOUTHEAST WASHINGTON

CITY           SKY/WX    TMP DP  RH WIND       PRES   REMARKS
PULLMAN        SUNNY     84  44  24 E9        30.14F
LEWISTON, ID   SUNNY     88  45  22 E7        30.06F
WALLA WALLA    SUNNY     83  44  25 NW6       30.05F
PENDLETON, OR  SUNNY     89  42  19 NW9       30.04F
$$




USA.gov is the U.S. government's official web portal to all federal, state and local government web resources and services.